Jackson, WY

7:55 AM MDT on April 30, 2017 (GMT -0600)
Jackson Hole

Weather History for KJAC - November, 2012

Change the Weather History Date:

Thursday, November 15, 2012

  Actual Average Record
Temperature  
Mean Temperature 27 °F -  
Max Temperature 37 °F 37 °F 60 °F (2016)
Min Temperature 17 °F 11 °F -10 °F (1978)
Degree Days  
Heating Degree Days 38    
Moisture  
Dew Point 23 °F    
Average Humidity 94    
Maximum Humidity 100    
Minimum Humidity 60    
Precipitation  
Precipitation 0.00 in - - ()
Sea Level Pressure  
Sea Level Pressure 30.30 in    
Wind  
Wind Speed 3 mph (NNE)    
Max Wind Speed 9 mph    
Max Gust Speed -    
Visibility 10 miles    
Events Snow    
Averages and records for this station are not official NWS values.
T = Trace of Precipitation, MM = Missing Value Source: NWS Daily Summary

Daily Weather History Graph

Daily Weather History Graph

Search for Another Location

Airport or City:

Trip Planner

Search our weather history database for the weather conditions in past years. The results will help you decide how hot, cold, wet, or windy it might be!

Date:

Astronomy

Nov. 15, 2012 Rise Set
Actual Time 7:17 AM MST 4:57 PM MST
Civil Twilight 6:46 AM MST 5:28 PM MST
Nautical Twilight 6:11 AM MST 6:02 PM MST
Astronomical Twilight 5:38 AM MST 6:36 PM MST
Moon 9:19 AM MST (11/15) 6:50 PM MST (11/15)
Length of Visible Light 10h 41m
Length of Day
9h 39m
Waxing Crescent, 5% of the Moon is Illuminated
Nov 15
Waxing Crescent
Nov 20
First Quarter
Nov 28
Full
Dec 6
Last Quarter
Dec 13
New

Hourly Weather History & Observations

Time (MST) Temp. Windchill Dew Point Humidity Pressure Visibility Wind Dir Wind Speed Gust Speed Precip Events Conditions
12:15 AM 24.8 °F 19.1 °F 23.0 °F 93% 30.29 in 10.0 mi ENE 4.6 mph - N/A   Overcast
12:35 AM 23.0 °F 17.0 °F 21.2 °F 93% 30.30 in 10.0 mi WNW 4.6 mph - N/A   Overcast
1:15 AM 24.8 °F - 23.0 °F 93% 30.29 in 10.0 mi Calm Calm - N/A   Overcast
1:35 AM 24.8 °F - 24.8 °F 100% 30.29 in 10.0 mi Calm Calm - N/A   Overcast
1:55 AM 24.8 °F - 24.8 °F 100% 30.29 in 10.0 mi Calm Calm - N/A   Overcast
2:15 AM 24.8 °F - 24.8 °F 100% 30.30 in 10.0 mi Calm Calm - N/A   Overcast
2:35 AM 24.8 °F - 24.8 °F 100% 30.30 in 10.0 mi Calm Calm - N/A   Overcast
2:55 AM 24.8 °F - 24.8 °F 100% 30.30 in 10.0 mi Calm Calm - N/A   Overcast
3:15 AM 24.8 °F - 23.0 °F 93% 30.31 in 10.0 mi Calm Calm - N/A   Overcast
3:35 AM 24.8 °F 20.5 °F 23.0 °F 93% 30.30 in 10.0 mi ENE 3.5 mph - N/A   Overcast
3:55 AM 24.8 °F - 23.0 °F 93% 30.30 in 10.0 mi Calm Calm - N/A   Overcast
4:35 AM 24.8 °F - 23.0 °F 93% 30.31 in 10.0 mi Calm Calm - N/A   Overcast
4:55 AM 24.8 °F - 24.8 °F 100% 30.31 in 10.0 mi Calm Calm - N/A   Overcast
5:15 AM 24.8 °F - 24.8 °F 100% 30.32 in 10.0 mi Calm Calm - N/A   Overcast
5:35 AM 26.6 °F - 26.6 °F 100% 30.32 in 10.0 mi Calm Calm - N/A   Overcast
5:55 AM 24.8 °F - 24.8 °F 100% 30.33 in 10.0 mi Calm Calm - N/A   Overcast
6:15 AM 24.8 °F - 24.8 °F 100% 30.33 in 10.0 mi Calm Calm - N/A   Overcast
6:35 AM 24.8 °F 20.5 °F 24.8 °F 100% 30.33 in 10.0 mi SW 3.5 mph - N/A   Overcast
6:51 AM 24.8 °F 20.5 °F 24.8 °F 100% 30.33 in 3.0 mi SSW 3.5 mph - N/A Snow Light Snow
7:53 AM 24.8 °F 16.9 °F 24.8 °F 100% 30.35 in 10.0 mi East 6.9 mph - N/A   Overcast
8:51 AM 24.8 °F 17.9 °F 23.0 °F 93% 30.36 in 7.0 mi ENE 5.8 mph - N/A   Overcast
9:52 AM 26.6 °F 22.6 °F 24.8 °F 93% 30.36 in 7.0 mi ENE 3.5 mph - N/A   Overcast
10:55 AM 28.4 °F 24.6 °F 26.6 °F 93% 30.36 in 7.0 mi SSW 3.5 mph - N/A   Overcast
11:59 AM 28.4 °F - 26.6 °F 93% 30.34 in 10.0 mi Calm Calm - N/A   Overcast
12:55 PM 30.2 °F 25.4 °F 26.6 °F 86% 30.30 in 10.0 mi SSW 4.6 mph - N/A   Scattered Clouds
1:56 PM 33.8 °F - 26.6 °F 75% 30.29 in 10.0 mi Calm Calm - N/A   Clear
2:53 PM 37.4 °F 32.1 °F 24.8 °F 60% 30.28 in 10.0 mi South 6.9 mph - N/A   Clear
3:51 PM 37.4 °F 33.8 °F 24.8 °F 60% 30.28 in 10.0 mi South 4.6 mph - N/A   Clear
4:52 PM 33.8 °F - 26.6 °F 75% 30.27 in 10.0 mi Calm Calm - N/A   Clear
5:51 PM 24.8 °F 19.1 °F 24.8 °F 100% 30.28 in 10.0 mi North 4.6 mph - N/A   Clear
6:52 PM 24.8 °F 16.1 °F 24.8 °F 100% 30.27 in 10.0 mi North 8.1 mph - N/A   Clear
7:54 PM 21.2 °F 14.9 °F 19.4 °F 93% 30.26 in 10.0 mi North 4.6 mph - N/A   Clear
8:51 PM 19.4 °F 9.5 °F 19.4 °F 100% 30.26 in 10.0 mi North 8.1 mph - N/A   Clear
8:55 PM 19.4 °F 9.5 °F 19.4 °F 100% 30.26 in 10.0 mi North 8.1 mph - N/A   Clear
9:15 PM 19.4 °F 11.5 °F 17.6 °F 93% 30.26 in 10.0 mi North 5.8 mph - N/A   Clear
9:55 PM 19.4 °F 11.5 °F 17.6 °F 93% 30.26 in 10.0 mi North 5.8 mph - N/A   Clear
10:15 PM 17.6 °F 7.3 °F 17.6 °F 100% 30.25 in 10.0 mi North 8.1 mph - N/A   Clear
10:35 PM 17.6 °F 8.2 °F 17.6 °F 100% 30.25 in 10.0 mi North 6.9 mph - N/A   Clear
10:55 PM 17.6 °F 8.2 °F 17.6 °F 100% 30.24 in 10.0 mi North 6.9 mph - N/A   Clear
11:15 PM 17.6 °F 6.4 °F 15.8 °F 93% 30.24 in 10.0 mi North 9.2 mph - N/A   Clear
11:35 PM 17.6 °F 8.2 °F 15.8 °F 93% 30.23 in 10.0 mi North 6.9 mph - N/A   Clear